Starlink 35529

operational
NORAD ID: 66259 Int'l Des: 2025-245 Owner: SPXS Country: US Constellation: starlink
LEOCIRCULAR

关于 Starlink 35529

正在加载描述...

实时位置

正在加载3D地球...

即将过境

高度历史

Altitude vs Time

uPlot chart will show altitude changes over time

两行轨道根数

1 66259U 25245AB 25351.59048827 .00033663 00000-0 84735-3 0 9996
2 66259 53.1626 306.1626 0000842 99.8907 260.2193 15.39637738 8679
Epoch: Dec 17, 2025 • Age: 9 hours

当前状态

高度 454.6 km
速度 7.64 km/s
星下点 -24.42°S, 153.03°W
发射日期 Oct 29, 2025
运行时间 0.1 years
类型 internet

技术详情

分类 Payload
质量 575.00 kg
干质量 530.00 kg
总质量 575.00 kg
长度 0.30 m
直径 4.10 m
跨度 29.00 m
形状 Box + pan
制造商 SPXS
平台类型 Starlink V2MO
阶段状态 In Orbit
所有者/国家 SPXS/US

大型星座

Loading constellations...